CZ-6A DEB

Satellite information

Favourite Embed

Satellite Type and Status

DEBRISIN ORBIT

Key statistics

Satellite CZ-6A DEB at a glance.

Uptime

335

Days in orbit

Revolutions

≈ 14.3

Per day

Orbit

LEO

Low Earth Orbit

Inclination

88.6

Latest

Satellite identification and parameters

Extended collection of information and parameters for CZ-6A DEB.

Object identification

Identified? True

Debris? True

Object name: CZ-6A DEB

International designator: 2024-140AAR

Object number (NORAD): 61483

Object ID (CCSDS): 61483

Country: PEOPLES REPUBLIC OF CHINA (PRC)

Current information (Y/N): Y

RCS size: SMALL

Orbital parameters

Period: 100.951 minutes

Inclination: 88.647 deg

SMA: 7181.792 km

Apoapsis: 854.27 km

Periapsis: 753.044 km

RAAN: 299.2888 deg

Eccentricy: 0.0070474

Argument of periapsis: 148.8783 deg

Mean anomaly: 211.6614 deg

Mean motion: 14.26439968 rev/day

Mean motion (dot): 0.00002754 rev/day2

B* drag term: 0.0011089 1/REarth

Two-line elements (TLE)

Creation date: July 6, 2025, 11:06 p.m.

Reference frame: TEME

Reference center: EARTH

Epoch: July 6, 2025, 5:25 p.m. UTC

TLE line 0: 0 CZ-6A DEB

TLE line 1: 1 61483U 24140AAR 25187.72575166 .00002754 00000-0 11089-2 0 9994

TLE line 2: 2 61483 88.6470 299.2888 0070474 148.8783 211.6614 14.26439968 43307

Live tracking on map

Real-time ground track for satellite CZ-6A DEB.

In-orbit conjunctions

A list of the most updated potential collisions computed for object CZ-6A DEB.

Target Orbit TCA Probability of collision Miss distance Type
COSMOS 1954 LEO 2025-04-18 07:51:01 0.0004400544 163.0 (m) PAYLOAD
CZ-6A DEB LEO 2025-02-16 16:10:25 0.0001334828 942.0 (m) DEBRIS
FENGYUN 1C DEB SSO 2025-01-02 17:33:00 0.0006385841 46.0 (m) DEBRIS
METEOR 1-19 LEO 2024-11-16 16:42:31 0.000123149 768.0 (m) PAYLOAD
RIGIDSPHERE 2 (LCS 4) LEO 2024-11-07 20:03:34 0.001841277 194.0 (m) PAYLOAD

Associated space launch

18 Low Earth Orbit communication satellites with Ku, Q and V band payloads for the G60 constellation operated by Shanghai Spacecom Satellite Technology (SSST) with funding backed by the Shanghai local government. Initial constellation will consist of 1296 satellites by 2027 with long term plans to expand it to 12000 satellites.

CZ-6A DEB was lifted into orbit during the mission ‘Long March 6A | G60 Polar Group 01’, on board a Long March 6A space rocket.

The launch took place on Aug. 6, 2024, 6:42 a.m. from Launch Complex 9A.

For more information about the launch, click the button.

Launch to space Long March 6A | G60 Polar Group 01
Long March 6A | G60 Polar Group 01

Agency: N/A

Status: Launch Successful

Launch date: Aug. 6, 2024, 6:42 a.m. UTC

Rocket: Long March 6A

Launch pad: Launch Complex 9A

Location: Taiyuan Satellite Launch Center, People's Republic of China

...

Latest news about this satellite

News about space launch
Brightness of first Chinese broadband constellation satellites alarms astronomers

The first satellites of a Chinese broadband constellation are significantly brighter than those of Western systems, posing a new challenge for astronomers.

News about space launch
Chinese rocket stage breaks up into cloud of more than 700 pieces of space debris

HELSINKI — A Chinese Long March 6A rocket’s upper stage has fragmented into a cloud of over 700 pieces of space debris, adding to concerns about long-term orbital safety. China […]

News about space launch
China's Thousand Sails Megaconstellation Kicks Off with Dangerous Debris Field

China's Thousand Sails Megaconstellation Kicks Off with Dangerous Debris Field


Newsletter sign-up

Weekly statistics, charts and insights to help you stay on top of the space industry.